Wind_Speed
41 42 42 42 41 42 42 42 42 42 42 42 41 40 39 39 39 40 41 41 41 41 41 40 39 38 37 37 36 36 35 35 34 34 33 33 32 32 31 31 31 32 32 33 34 35 35 36 37 39 41 41 40 42 42 41 41 39 37 35 31 29 30 32 35 36 34 34 35 33 31 31 31 30 33 35 34 32 28 26 26 28 29 28 26
37 38 38 37 37 38 38 38 38 38 38 37 36 35 34 34 34 35 36 37 37 37 37 36 35 35 34 33 33 32 32 32 32 32 31 31 31 31 31 30 31 31 32 32 33 34 35 36 37 38 41 43 42 41 43 43 41 39 39 37 34 32 30 30 33 35 34 34 36 36 33 32 32 31 33 37 38 36 33 32 30 30 30 28 27
36 36 36 35 36 36 36 36 35 35 34 33 31 30 30 30 31 32 33 34 34 34 33 33 32 31 31 30 30 30 30 30 30 30 30 30 30 29 29 29 29 30 31 32 33 34 34 35 36 38 40 42 43 42 42 44 43 40 38 38 36 35 33 32 32 32 34 34 35 36 34 32 33 33 34 37 41 40 37 36 34 31 31 30 30
37 36 36 35 35 34 34 33 33 33 32 30 27 26 27 28 29 30 31 31 31 31 31 30 29 29 28 28 28 28 28 28 28 28 28 28 28 28 28 28 28 29 30 32 32 33 34 35 36 38 39 41 43 44 43 44 46 44 40 38 37 36 36 36 36 34 33 34 33 35 35 33 33 35 37 38 40 40 40 40 38 36 35 33 32
39 39 37 36 35 34 33 33 33 32 31 27 24 23 25 26 28 29 29 29 28 28 28 28 27 27 26 26 26 26 26 26 26 26 26 26 27 27 27 28 28 29 31 32 32 32 33 34 36 37 39 40 42 45 44 44 46 47 44 41 39 39 40 39 38 38 36 34 34 34 34 34 33 35 38 40 42 41 41 41 41 40 38 35 34
42 41 40 38 37 36 35 35 34 33 31 26 22 23 24 25 27 28 27 26 26 26 27 26 26 25 25 25 24 24 24 24 25 25 25 26 26 27 27 28 29 29 31 31 32 32 34 35 36 38 39 40 41 44 45 45 45 47 48 45 42 41 42 41 40 40 40 37 37 36 35 35 36 36 37 39 42 42 42 41 41 42 41 39 37
45 44 43 42 40 38 38 37 36 35 32 27 23 24 25 25 26 26 26 25 25 25 26 25 25 25 25 25 25 25 25 25 26 26 26 26 27 27 28 29 29 30 31 32 32 32 34 35 37 38 39 39 40 42 45 46 45 46 48 48 46 44 44 43 41 41 42 41 40 40 40 40 41 40 38 39 40 40 42 40 39 41 42 40 38
48 47 46 45 44 43 42 41 40 38 36 32 27 27 28 27 26 26 26 26 26 26 26 25 26 26 26 26 27 27 27 27 27 27 28 28 28 28 29 30 31 32 32 33 33 33 34 35 37 38 39 40 40 41 42 45 46 47 48 49 48 48 46 44 43 42 43 44 43 43 44 45 45 44 43 42 42 42 42 39 38 41 42 40 38
50 49 49 47 46 46 45 44 43 41 40 37 32 31 32 31 29 28 28 28 28 28 27 27 27 27 28 28 29 30 30 30 29 29 30 30 30 30 30 31 32 33 33 34 34 34 34 35 37 38 39 39 40 40 41 43 45 47 49 50 50 50 49 46 44 44 45 45 46 46 47 47 47 47 47 47 47 47 45 42 40 41 42 41 40
51 51 50 50 49 48 47 46 46 44 44 41 37 36 36 35 33 32 31 30 30 30 30 30 29 29 30 30 31 32 33 32 32 31 32 32 32 31 31 32 33 33 34 34 35 35 35 35 37 38 38 39 39 40 40 40 43 46 49 51 51 52 52 50 47 46 46 47 48 48 49 49 49 49 50 50 50 49 48 47 46 45 46 45 44
51 51 52 52 50 49 48 48 47 45 45 44 41 40 39 38 37 36 34 34 33 32 32 32 33 33 33 33 34 34 35 35 34 34 33 33 33 33 33 33 33 34 35 35 35 35 36 36 37 37 38 38 39 39 40 40 40 43 47 50 52 53 55 53 50 49 49 49 50 51 51 51 51 51 52 53 52 51 50 50 49 50 50 49 47
51 51 52 52 51 49 49 49 47 47 46 45 43 42 41 41 41 40 39 38 37 36 35 35 36 36 37 37 37 37 38 38 37 37 36 36 35 35 35 34 34 35 35 35 36 36 36 37 37 38 38 38 39 39 40 40 40 41 44 48 51 53 56 56 52 52 52 51 51 52 53 53 53 53 53 53 54 54 53 52 50 50 51 51 51
49 51 52 52 51 51 51 50 49 49 48 46 45 44 43 43 43 43 43 42 42 41 40 39 39 39 39 40 40 40 40 40 40 40 40 39 38 38 37 36 36 36 36 36 36 37 37 38 38 38 39 39 39 39 40 41 41 42 43 45 49 52 55 57 55 54 55 55 53 53 54 55 55 55 55 55 55 55 55 55 54 52 52 52 53
48 49 50 51 52 52 52 52 51 51 50 48 48 47 46 45 44 45 45 46 46 45 44 44 43 42 42 42 42 42 42 42 43 43 42 42 41 41 40 39 38 38 37 37 38 38 39 39 39 39 40 40 40 40 41 41 42 42 43 44 47 50 53 56 57 57 57 57 57 55 54 55 56 57 57 57 57 56 56 56 56 56 55 54 54
49 49 50 51 51 52 52 52 52 52 51 50 50 49 48 47 46 46 46 47 47 48 47 47 46 46 46 45 44 44 44 44 44 44 44 44 43 43 42 41 40 39 39 39 39 39 40 41 41 41 41 41 41 41 42 42 43 43 44 44 46 48 51 54 57 58 59 59 60 59 57 56 58 58 58 59 59 58 57 57 57 58 58 57 56
52 52 53 53 53 53 53 53 53 53 53 51 51 50 49 49 48 47 47 48 48 48 48 48 48 48 48 48 47 47 47 46 46 46 46 46 46 45 45 44 43 42 41 41 41 41 42 42 43 43 43 43 43 43 43 44 44 45 45 45 46 47 49 52 54 57 58 59 61 62 61 58 58 60 60 60 60 60 60 59 58 59 60 60 59
56 55 55 55 55 55 56 56 56 55 55 54 52 52 51 51 50 49 49 49 49 49 49 49 49 49 49 49 49 49 50 50 49 49 49 48 48 48 47 47 46 45 45 44 43 43 43 44 44 45 45 45 45 45 45 45 46 46 47 47 47 47 49 51 53 55 56 58 59 63 66 63 59 60 62 62 62 63 62 62 61 60 60 61 62
58 58 57 57 57 58 58 59 59 59 58 56 55 54 54 53 53 52 51 51 51 51 50 50 50 50 50 50 50 51 51 51 51 51 51 51 51 50 50 49 49 48 48 47 47 46 45 45 46 47 47 47 47 47 48 48 48 48 49 49 49 49 50 51 53 54 55 56 58 60 65 67 64 61 62 64 64 65 64 65 65 64 63 62 62
60 59 58 58 59 60 60 61 62 61 60 59 58 57 57 57 57 57 55 55 54 54 52 52 52 51 51 51 52 52 53 52 52 53 53 52 52 52 52 51 51 50 50 50 50 49 49 48 48 48 49 49 50 50 50 50 51 51 51 51 51 51 52 52 52 54 55 56 57 58 62 66 67 65 63 64 66 67 66 66 67 68 68 67 66
60 60 59 59 60 61 62 62 62 62 61 60 60 59 59 60 60 60 59 58 58 57 56 55 55 54 53 53 54 54 54 54 54 54 54 53 53 53 53 53 53 53 52 52 52 52 52 51 51 50 51 52 52 52 52 52 53 53 53 53 53 53 54 54 54 54 55 56 57 58 59 62 65 66 65 65 66 68 69 68 68 68 69 71 71
60 60 60 60 60 61 62 62 63 62 62 62 62 61 61 61 62 63 63 61 59 58 58 59 59 59 58 58 57 57 56 56 55 55 54 54 54 54 54 54 55 55 55 55 55 54 54 54 54 54 53 54 54 55 55 55 55 55 55 55 56 55 55 56 56 56 56 57 58 58 59 61 62 64 64 65 66 67 69 70 70 69 69 71 73
59 59 59 59 59 60 60 61 61 62 62 62 62 62 62 63 63 63 64 63 61 60 60 60 61 62 62 61 61 60 60 59 59 58 57 56 55 55 55 56 56 56 57 57 57 57 57 57 57 57 57 56 57 57 57 58 58 58 58 58 57 58 58 57 58 58 58 58 59 59 60 61 62 63 63 64 65 66 68 69 71 71 70 71 72
57 57 57 57 57 57 57 57 57 57 58 58 58 59 60 60 61 61 62 62 62 61 61 61 63 63 63 62 62 62 63 62 62 62 62 60 59 58 58 58 58 58 58 59 59 59 60 60 60 60 59 60 60 60 60 60 60 60 60 60 60 59 59 59 59 60 60 60 60 61 61 62 63 63 64 64 64 65 66 67 69 71 71 71 71
56 55 55 55 54 54 54 54 53 53 53 53 54 55 55 56 57 57 58 59 59 59 59 59 62 63 62 62 63 63 64 64 64 64 65 64 64 63 62 61 61 61 61 61 61 61 62 63 63 62 62 62 63 63 64 64 63 63 63 63 62 62 61 61 61 61 62 62 62 62 63 63 64 64 65 66 66 66 66 67 68 69 70 71 72
55 55 55 54 54 54 53 53 52 52 52 52 52 53 54 54 55 55 56 57 56 56 56 57 60 61 60 60 61 62 62 63 64 65 67 67 67 66 66 65 64 65 64 64 63 64 64 64 65 65 65 65 66 67 67 67 67 67 67 66 65 65 64 64 64 64 64 64 64 65 65 66 66 66 67 67 68 68 68 68 68 69 69 70 72
55 55 55 55 55 55 55 55 54 54 54 54 54 55 55 55 56 56 56 57 57 57 56 57 58 58 58 59 60 60 60 60 62 64 66 67 67 67 67 67 67 67 67 67 67 67 66 66 66 67 67 68 69 70 70 70 70 70 70 69 69 68 68 68 67 67 67 67 67 67 67 68 68 69 69 69 70 70 70 70 70 70 70 70 71
57 57 57 58 58 58 58 58 58 57 57 57 57 57 58 58 58 58 58 58 59 59 58 59 59 59 59 60 60 59 59 59 60 61 63 65 65 65 66 67 69 69 69 70 70 69 69 69 69 69 70 71 72 72 73 73 73 73 73 73 73 73 73 72 71 71 70 70 69 69 69 69 70 71 72 72 72 73 73 73 73 72 72 72 72
59 60 60 60 61 61 61 61 61 61 61 61 60 60 60 60 61 60 60 60 60 61 61 62 61 60 61 62 61 60 60 60 60 61 62 63 64 63 64 65 67 69 70 71 71 71 72 72 72 72 73 74 74 74 75 76 77 77 77 77 77 77 76 76 75 75 74 74 73 73 72 72 72 73 73 73 74 75 75 75 76 75 75 75 74
60 62 63 63 63 63 64 64 64 64 64 64 65 64 63 63 63 63 64 64 63 63 64 64 64 63 63 64 64 63 62 62 62 62 62 63 63 63 62 63 64 65 67 68 69 71 72 73 73 74 76 77 77 77 79 80 80 80 80 80 80 80 79 79 79 78 78 78 77 77 76 76 76 76 76 75 75 76 76 77 77 78 78 77 77
62 63 64 65 66 66 66 66 66 66 67 67 68 68 67 66 66 66 66 66 66 66 66 66 66 66 66 66 66 66 65 65 64 64 64 64 64 63 63 62 62 63 64 65 67 69 71 71 72 74 77 79 79 81 82 83 83 82 81 81 82 82 82 82 82 82 81 81 81 81 81 81 81 80 79 79 79 78 78 78 79 79 79 79 80
65 66 66 67 67 68 68 69 68 68 69 70 71 71 71 70 70 70 69 68 69 69 69 69 69 69 69 69 69 69 68 67 67 66 66 66 65 65 65 64 63 64 64 64 66 68 69 70 72 74 76 77 78 81 83 84 85 84 84 84 83 84 84 84 84 84 84 84 85 84 84 85 85 84 83 83 82 82 81 81 81 81 81 81 81
67 68 68 69 69 70 70 71 71 71 71 72 73 73 73 73 73 73 72 71 71 71 72 72 72 71 71 72 71 71 71 70 70 69 69 68 68 67 67 67 66 66 65 65 66 67 68 70 71 73 74 75 77 79 81 83 85 86 87 87 86 86 86 85 86 86 87 87 88 88 88 88 88 87 87 87 86 86 85 85 84 84 84 84 84
68 68 69 70 70 71 71 72 72 72 73 73 73 74 74 74 74 75 74 74 74 73 73 74 73 73 73 73 73 72 72 72 72 72 71 71 70 70 70 69 69 68 67 67 67 67 68 69 70 71 73 74 75 77 78 80 82 84 87 88 88 88 88 88 88 88 88 89 89 90 90 90 90 90 90 90 90 89 89 88 88 88 87 87 87
69 70 70 71 71 72 72 73 73 74 74 74 74 74 75 75 75 76 76 76 76 76 76 76 75 75 74 74 73 73 73 73 73 73 73 73 73 72 72 72 71 70 70 69 69 69 69 70 71 71 72 72 73 75 76 77 79 81 84 86 87 88 89 90 91 91 91 91 91 92 92 92 92 93 93 93 92 92 91 91 91 91 91 91 90
70 71 72 72 73 73 73 74 74 75 75 76 76 76 76 76 77 77 78 78 79 79 79 79 78 78 76 75 75 75 74 74 74 74 74 74 74 74 74 74 73 73 72 71 71 71 71 71 72 72 72 72 72 73 74 76 78 80 82 83 84 86 88 89 90 91 92 93 94 94 94 94 93 94 94 94 94 94 94 94 94 94 94 94 94
72 72 73 73 73 74 74 75 75 76 76 76 76 76 76 77 77 78 79 80 80 81 81 81 81 80 79 78 77 76 76 76 75 75 75 75 75 75 75 75 75 74 74 73 73 72 73 73 74 73 73 72 72 72 73 75 77 79 81 83 84 86 87 89 89 90 90 92 93 94 95 95 95 95 96 96 96 96 95 95 95 96 96 96 96
73 73 74 74 74 74 75 75 76 76 76 76 76 76 76 77 77 78 79 80 81 82 82 82 82 81 80 80 79 78 77 77 77 76 76 76 76 76 76 76 75 75 75 75 74 74 74 75 75 74 73 73 73 73 74 75 77 79 81 83 85 87 89 90 91 91 92 92 92 93 93 94 94 95 96 97 97 97 97 97 96 96 97 97 98
75 75 75 74 74 75 75 75 75 76 76 75 75 75 75 76 77 78 79 80 81 82 83 82 82 81 81 80 79 78 78 77 78 77 77 77 77 77 77 76 76 76 75 75 75 75 75 75 75 74 74 73 73 74 75 76 77 79 81 83 85 87 89 90 91 92 93 93 94 94 93 93 93 93 94 95 96 97 98 98 99 99 99 99 99
76 76 75 75 74 74 74 74 74 74 74 74 73 74 74 74 75 76 78 79 80 81 82 81 81 81 81 80 79 78 78 78 78 78 78 77 77 77 77 77 77 76 76 76 76 76 76 76 75 74 74 74 74 74 75 77 78 80 81 83 84 85 87 88 90 91 92 93 94 95 95 95 94 93 92 93 93 95 96 97 98 99 100 101 102
77 76 75 75 74 73 72 72 71 71 71 71 71 71 70 70 71 72 74 76 77 78 78 79 79 79 79 79 78 78 78 78 78 78 78 78 78 78 78 78 78 78 77 77 77 77 76 76 75 75 75 74 74 75 76 77 78 79 80 82 83 84 84 85 86 88 90 92 93 94 95 96 96 95 93 92 91 91 92 94 95 96 98 99 101
76 75 74 74 73 72 71 70 70 69 69 68 67 66 65 65 66 66 69 71 73 73 73 74 74 75 75 75 75 76 76 76 76 76 77 77 78 78 78 78 78 78 78 78 78 77 77 76 76 76 75 75 75 76 77 78 78 78 79 81 82 82 82 83 84 85 87 89 91 92 93 94 95 95 95 93 92 91 90 90 90 92 93 95 97
72 72 72 71 70 69 69 68 67 66 65 64 63 61 61 61 62 64 67 69 69 69 69 70 70 70 70 71 72 72 73 73 73 73 74 75 76 76 76 77 77 78 78 79 78 78 78 77 76 76 75 75 76 77 78 78 78 78 79 79 80 80 80 81 81 82 84 86 88 89 90 91 92 92 93 93 92 91 90 88 88 88 88 88 89
68 68 68 66 65 65 65 64 64 63 62 61 60 59 58 59 60 63 65 66 66 66 66 66 67 67 68 68 69 70 70 70 70 70 71 72 73 73 73 73 74 75 76 77 77 78 77 76 76 76 76 76 77 77 78 79 78 78 78 78 78 78 77 77 78 78 80 82 83 84 85 87 88 89 89 89 89 89 88 87 86 85 84 83 82
65 65 64 63 62 61 61 61 61 61 61 59 58 57 56 57 59 62 63 62 62 62 62 63 63 64 65 66 66 67 67 67 67 67 68 69 69 69 69 69 70 71 72 73 74 74 74 74 75 75 76 76 77 77 78 78 78 78 78 77 76 74 74 73 73 74 75 76 78 79 80 81 82 83 84 84 84 84 84 83 82 81 80 78 76
64 63 63 62 60 59 59 59 60 60 59 58 56 56 55 56 58 60 60 59 59 59 59 60 61 62 62 63 63 63 64 64 64 64 65 66 66 65 65 65 66 66 67 68 69 69 70 70 71 72 74 74 75 75 75 75 75 75 75 74 73 72 71 70 69 70 70 71 73 73 74 76 76 77 77 77 78 78 79 78 77 76 74 73 72
62 62 61 60 59 58 58 58 59 59 57 56 55 54 54 55 57 57 56 56 56 56 56 57 59 60 60 60 61 61 60 60 60 61 62 62 62 62 62 62 62 62 63 63 63 64 65 65 66 68 69 70 70 70 70 70 71 71 71 71 71 70 69 68 67 66 66 66 67 68 69 70 70 71 72 72 73 73 72 72 71 70 69 69 69
61 61 60 59 58 57 57 57 58 58 57 55 54 52 52 53 54 53 52 52 52 52 53 55 56 57 56 56 57 56 56 56 57 58 58 59 58 58 58 58 58 58 59 59 59 60 60 61 62 63 64 64 65 66 66 66 66 66 67 68 68 69 69 68 66 65 63 63 63 63 63 63 64 65 65 66 66 66 66 67 67 67 66 65 65
60 60 59 57 56 55 55 55 56 56 56 54 52 51 50 50 50 49 49 50 49 50 52 53 54 53 52 52 51 51 51 53 53 54 54 54 53 53 53 53 54 54 55 55 56 56 56 57 58 58 59 60 60 61 62 62 63 64 64 65 66 67 67 67 66 65 64 63 62 61 61 60 60 60 60 61 61 62 63 64 64 63 62 61 60
58 57 56 54 54 53 53 53 54 54 54 53 52 51 50 48 46 47 48 49 49 50 51 51 50 49 49 49 49 49 50 50 51 51 50 50 50 50 51 51 52 53 53 53 53 54 54 54 54 55 55 56 57 58 60 60 61 61 62 63 63 64 65 65 65 65 64 63 62 61 60 60 59 58 58 58 58 59 60 60 59 58 57 57 57
56 55 53 53 51 51 51 51 52 53 53 52 51 50 47 45 45 48 49 49 49 50 50 49 49 48 48 48 48 49 49 49 49 49 48 48 49 50 51 52 52 52 52 51 51 52 52 52 53 53 54 55 57 58 58 59 59 59 60 60 61 61 62 62 62 62 62 61 60 58 57 56 54 53 53 53 54 54 55 55 54 53 53 54 55
55 54 53 52 51 50 50 50 51 52 51 51 51 49 46 45 47 49 49 48 48 49 49 49 48 48 48 49 49 49 48 48 48 48 48 47 48 49 50 50 50 50 49 50 50 50 51 52 52 54 54 55 56 57 57 58 58 58 59 59 60 60 60 60 60 59 58 57 56 55 53 50 48 47 47 48 49 50 50 50 50 50 50 51 52
Wind_Direction
268 268 268 268 267 267 266 266 267 268 268 268 268 267 266 265 265 264 263 261 261 262 264 264 264 263 262 261 261 261 260 260 260 259 259 257 256 254 252 250 247 245 243 242 241 241 239 236 233 231 228 225 224 222 221 223 227 227 226 224 224 231 236 237 236 233 231 228 225 222 225 233 237 236 228 219 216 217 220 225 232 236 237 238 242
268 268 268 268 267 267 267 267 268 269 269 269 268 267 266 265 263 263 262 261 261 260 260 262 262 262 262 261 260 259 258 258 257 256 255 254 253 251 249 247 245 243 242 241 240 239 238 236 234 231 229 226 224 221 219 219 221 225 226 223 221 223 227 231 235 234 232 230 226 223 221 227 233 235 230 222 219 220 221 225 230 236 241 244 248
269 268 268 268 268 268 269 269 269 269 269 269 269 268 266 265 263 262 262 262 262 261 260 259 260 260 260 260 258 257 256 255 254 253 253 252 251 250 248 246 243 242 241 239 239 239 238 236 234 232 230 227 224 221 219 219 220 223 224 222 219 218 220 224 228 231 231 230 226 223 222 224 229 232 230 226 223 223 224 224 224 228 237 247 255
269 269 269 270 270 271 271 271 269 268 268 269 270 269 267 265 263 262 262 263 264 263 262 261 260 258 257 256 255 254 253 252 251 250 250 250 250 249 248 246 242 240 239 239 239 238 237 235 234 232 231 229 225 221 219 220 221 222 223 223 219 216 217 222 225 227 228 226 222 220 221 221 224 227 229 229 229 228 229 228 226 224 227 233 242
268 269 270 271 271 272 272 271 270 269 269 270 271 269 267 266 264 264 263 263 264 264 264 263 261 259 256 254 253 252 252 252 252 251 250 250 250 250 249 247 243 240 240 240 239 237 236 235 233 232 232 230 227 224 221 220 221 221 222 223 221 218 217 219 223 226 225 221 217 217 218 219 221 222 224 229 234 235 235 235 234 233 233 232 233
267 268 269 269 269 270 270 270 270 270 270 270 268 266 265 264 265 265 265 264 263 263 263 262 261 260 259 257 256 254 254 254 253 253 251 251 250 250 249 248 246 244 243 242 240 238 236 234 232 231 232 231 229 227 224 222 221 221 222 223 222 221 221 220 220 223 225 222 218 216 217 219 222 223 222 225 232 237 240 239 239 240 240 238 236
265 266 266 267 267 267 266 267 268 269 269 268 264 262 262 260 261 264 264 263 262 261 260 259 259 259 259 259 259 258 256 254 254 253 253 251 249 249 248 247 246 245 245 245 243 239 236 234 233 232 231 231 229 228 227 225 223 222 222 223 223 222 223 224 221 219 223 224 221 219 218 218 220 222 222 223 226 232 238 241 242 242 241 238 236
264 265 265 265 266 265 265 266 267 267 268 267 263 260 259 258 257 258 260 260 259 258 258 257 256 257 257 257 258 258 256 255 254 254 255 253 251 248 246 245 244 243 244 245 245 242 238 235 233 233 232 232 230 229 228 228 226 224 222 223 224 223 223 227 225 219 221 224 223 222 221 221 221 221 221 222 222 224 230 236 241 245 245 241 234
265 265 265 265 265 264 265 266 266 267 267 268 265 261 260 259 257 254 254 256 257 258 258 257 256 255 255 256 256 257 258 257 255 254 254 255 254 250 247 245 244 243 243 244 244 243 240 237 235 234 234 233 231 231 229 228 228 227 225 223 223 223 223 226 226 222 222 224 224 224 224 225 225 225 224 223 223 223 224 227 232 239 244 241 233
265 265 265 265 264 265 265 265 266 267 268 269 266 263 263 263 261 258 254 254 255 257 258 259 258 257 256 257 258 259 259 259 257 254 252 252 253 252 250 247 246 245 244 243 243 243 241 239 237 236 235 235 233 232 231 230 229 228 228 227 225 224 223 225 224 222 222 225 225 225 225 226 227 228 229 228 226 225 224 226 229 234 239 241 237
265 265 265 265 265 266 266 266 266 267 267 268 266 264 264 264 264 262 259 256 255 254 255 256 257 258 258 258 258 259 260 259 258 255 253 251 250 250 250 249 247 247 246 245 244 242 241 240 238 237 237 237 236 235 233 232 231 230 230 230 228 226 225 226 225 221 221 223 225 226 226 226 227 228 230 231 230 228 227 228 230 233 238 242 242
264 265 266 267 267 267 266 266 266 266 266 266 266 264 263 262 262 262 260 258 256 254 253 253 253 254 254 255 256 257 258 258 258 257 255 253 251 250 250 249 248 248 247 246 245 243 241 240 239 238 239 239 238 237 236 234 233 232 231 231 231 230 229 229 228 224 221 221 222 226 227 226 227 229 230 232 233 232 230 230 232 234 237 241 244
264 265 266 268 268 268 267 267 266 265 264 264 263 262 260 259 259 259 258 257 256 254 253 252 251 251 251 251 252 253 254 255 256 257 256 255 253 252 251 251 250 249 248 247 246 244 242 241 240 239 239 240 240 239 238 237 235 234 233 232 232 232 231 232 230 226 224 223 221 223 227 229 229 230 231 233 234 235 234 234 234 236 238 240 243
261 263 264 265 266 267 268 268 267 266 264 263 262 261 259 258 257 256 256 256 255 254 253 253 252 251 250 249 249 250 251 252 253 255 255 255 255 254 253 252 251 250 249 248 247 245 243 242 241 240 239 240 240 241 240 239 238 236 235 233 232 233 232 233 233 230 227 227 226 223 223 228 231 231 232 234 236 237 238 238 238 238 238 239 240
260 260 261 262 263 264 265 266 266 266 265 264 263 262 261 259 258 256 256 255 255 255 254 253 252 251 250 249 249 249 249 250 251 252 253 253 253 254 253 252 251 251 250 249 248 246 244 243 242 241 240 240 240 241 241 240 239 238 237 236 234 233 234 234 234 233 231 230 230 228 224 224 228 231 233 234 235 237 238 241 244 244 243 241 240
261 261 261 262 262 262 263 263 264 264 264 264 264 263 263 261 260 258 257 256 256 255 255 254 253 252 251 250 249 249 249 249 250 250 251 251 251 252 252 252 251 250 250 250 249 248 246 244 243 242 241 241 241 241 241 241 240 239 239 238 236 235 234 235 235 235 235 234 232 231 230 227 225 228 231 234 235 236 236 237 241 244 246 247 246
262 262 262 262 263 263 263 263 263 263 264 264 264 264 264 263 263 261 260 259 257 256 256 255 254 253 252 251 251 250 250 249 249 249 249 250 250 250 250 250 250 249 249 249 249 248 247 246 244 243 242 242 242 241 241 241 241 241 240 239 238 237 236 235 236 236 237 237 235 233 233 233 230 226 228 231 234 236 236 236 235 236 239 244 247
262 262 262 262 263 263 263 263 263 263 263 263 263 264 264 264 263 263 262 261 260 259 257 257 256 255 254 253 252 251 250 250 250 249 249 248 248 249 249 249 249 249 249 249 249 248 248 247 245 244 243 242 242 243 242 242 241 241 240 239 239 238 237 236 236 237 237 238 237 235 234 235 235 231 227 228 231 234 236 238 237 236 235 237 240
263 262 261 261 262 262 261 262 262 263 264 264 264 263 263 263 263 262 261 261 261 261 260 259 258 258 256 255 254 253 252 251 250 250 250 249 248 248 248 249 249 249 249 249 249 248 248 247 246 245 244 244 243 243 243 243 242 241 241 240 239 239 238 238 236 237 238 238 238 238 236 236 237 237 233 230 230 231 234 236 238 239 239 238 239
261 261 261 260 260 261 261 261 261 262 263 263 262 262 263 263 262 262 261 259 259 260 260 260 259 259 258 257 256 255 254 253 252 252 251 251 250 250 249 249 249 249 250 250 250 249 248 247 247 246 245 245 244 244 244 243 243 242 241 241 241 240 239 239 238 237 237 238 238 239 239 238 238 240 239 236 233 232 233 235 236 239 241 241 241
260 260 259 258 258 259 260 260 261 261 261 261 261 261 260 261 261 261 261 259 258 258 259 259 259 258 257 256 256 256 256 255 255 254 253 252 251 251 250 250 249 249 249 249 250 250 249 248 247 247 246 246 245 245 245 245 244 243 243 242 241 241 241 240 240 239 238 238 238 239 239 240 240 241 242 241 239 237 236 236 236 237 239 240 242
260 260 260 259 259 258 259 260 261 262 262 262 262 261 261 260 261 261 261 261 260 259 257 257 257 257 257 256 256 256 256 256 256 255 254 253 252 251 251 250 250 249 248 248 248 249 249 248 248 247 247 247 247 246 246 246 246 245 244 244 242 242 242 242 241 241 240 239 239 239 239 240 241 241 242 243 243 242 241 240 240 239 239 240 240
262 262 261 261 261 260 260 261 261 262 263 263 264 263 263 263 262 262 263 263 262 261 259 258 258 257 256 256 256 256 256 256 256 256 255 254 252 251 250 250 249 249 249 248 247 247 247 247 247 247 247 247 247 247 247 247 246 246 246 245 245 243 243 242 242 242 242 242 241 241 241 241 241 242 243 243 244 244 244 244 243 243 243 243 243
263 263 262 262 262 262 261 261 261 261 262 263 263 263 264 264 263 263 263 263 263 262 261 260 259 258 257 256 256 255 256 256 256 256 255 254 252 251 250 249 249 249 248 248 248 247 246 246 246 246 247 247 247 247 247 247 247 247 247 246 246 246 245 244 244 243 242 242 242 242 242 242 242 243 243 244 244 245 245 245 245 245 246 246 247
265 265 265 264 264 264 264 263 263 262 262 262 262 262 262 262 263 263 263 263 262 262 261 260 260 260 259 257 256 254 254 254 255 255 254 254 253 252 251 250 249 249 249 248 248 247 247 246 246 246 246 247 247 247 246 246 246 246 247 247 247 247 247 246 246 245 244 243 242 242 242 242 243 243 243 244 244 245 245 246 246 246 247 247 248
266 267 267 267 267 267 266 266 265 264 263 263 262 262 262 261 262 262 262 262 262 261 260 260 260 260 260 259 257 255 254 253 253 254 254 254 253 253 253 252 251 250 249 249 249 248 248 247 247 246 246 246 247 247 247 246 246 246 246 247 247 247 247 247 247 247 246 246 245 243 243 242 242 242 243 243 244 245 245 246 246 247 247 247 248
265 266 266 267 267 267 267 267 266 266 265 264 263 263 263 263 262 262 261 262 262 262 262 261 260 260 260 260 259 257 256 254 253 253 254 254 253 252 253 252 252 251 250 249 249 249 249 249 248 248 247 247 247 247 247 247 246 246 246 246 246 246 246 246 247 247 247 247 247 246 246 245 244 243 243 243 243 244 245 245 246 247 247 247 248
264 264 264 264 264 264 264 265 265 266 266 265 264 264 263 263 263 263 262 261 261 261 261 261 261 261 260 261 260 259 258 257 255 254 254 255 254 253 252 252 252 252 251 250 250 249 249 249 249 249 249 249 249 248 248 248 247 246 245 245 245 245 245 245 246 246 247 247 247 247 247 247 247 246 245 244 244 244 244 245 245 246 247 247 248
261 262 263 263 263 263 263 263 264 264 265 265 265 264 263 263 263 263 263 262 262 261 261 261 261 261 261 261 261 261 260 260 259 257 257 256 256 255 253 253 253 253 253 253 252 250 249 249 249 250 250 250 250 249 249 249 248 247 246 246 246 246 246 246 246 246 246 247 247 247 248 248 247 247 247 247 246 246 245 245 245 245 246 247 247
261 261 262 263 263 264 264 264 264 264 264 264 264 264 264 263 262 262 262 262 263 262 262 262 261 261 261 261 261 261 261 260 260 260 259 259 259 258 256 255 254 254 254 254 253 252 251 249 249 249 249 249 250 250 250 250 250 249 249 248 247 247 246 246 247 247 247 247 247 247 248 248 248 248 247 247 247 247 247 247 247 247 246 246 247
263 263 263 263 263 264 264 264 264 264 264 264 264 264 264 263 262 262 261 261 261 262 262 262 262 262 262 262 261 261 261 261 261 260 260 260 260 259 259 257 256 255 254 253 253 253 252 251 249 249 249 249 250 251 252 252 252 251 251 250 249 249 248 248 248 248 248 248 248 248 248 248 248 248 248 248 248 248 248 248 248 248 248 248 248
264 264 264 264 264 264 264 264 264 263 263 264 264 264 264 264 264 263 262 261 261 260 260 261 261 261 262 262 262 262 262 262 262 262 261 261 260 260 260 259 258 257 256 255 254 254 253 252 251 251 250 250 250 250 252 253 254 254 253 252 251 250 249 249 249 249 249 249 249 248 248 248 249 249 249 249 249 249 249 249 249 249 249 249 249
264 264 264 263 263 263 263 263 263 263 263 263 263 264 264 265 265 265 265 264 263 262 261 260 260 260 260 261 261 262 262 262 262 262 262 262 261 261 261 260 260 259 258 257 256 255 255 254 253 252 252 251 251 251 252 253 254 255 255 255 254 253 252 251 250 249 249 249 249 249 249 249 249 249 249 249 249 250 250 250 250 250 250 250 250
264 263 263 263 262 262 262 262 263 263 263 263 263 263 264 264 264 265 265 265 264 264 263 262 261 260 259 259 259 260 260 260 261 261 261 261 261 261 261 260 260 259 259 258 258 257 257 256 255 254 253 252 252 252 253 253 254 255 255 256 256 256 255 254 253 252 251 250 250 250 250 250 250 250 250 250 250 250 250 251 251 251 251 251 251
263 263 262 262 262 262 262 262 263 263 263 263 263 263 263 264 264 264 264 264 264 264 264 263 263 262 261 260 259 259 259 259 259 260 260 260 260 260 260 260 260 260 259 259 259 258 258 257 257 256 255 254 254 253 254 254 254 254 255 255 256 256 256 256 255 254 254 253 252 251 251 251 251 251 251 251 251 251 251 251 251 251 252 252 252
264 264 263 262 262 262 262 262 263 263 263 263 263 263 263 264 264 264 264 264 264 264 264 263 263 263 263 262 261 261 261 260 260 260 260 260 260 260 260 260 260 260 260 260 259 259 258 258 258 257 257 256 256 255 254 254 254 255 255 255 256 256 256 256 257 257 256 255 254 253 253 252 252 252 253 253 253 252 252 252 252 252 252 252 253
266 265 264 264 263 263 262 262 262 262 262 263 263 263 263 263 263 263 263 263 263 263 263 263 263 263 263 263 262 262 262 262 261 261 261 261 261 261 261 261 261 261 261 261 260 260 259 259 258 258 258 258 257 257 256 255 254 254 254 255 255 255 256 256 257 257 258 257 257 256 255 254 253 253 253 253 254 254 254 254 253 253 253 253 253
267 266 265 265 264 264 263 263 263 263 263 263 263 263 263 262 262 262 262 262 262 262 262 262 262 262 262 262 262 262 262 262 262 262 261 261 261 261 261 262 262 261 261 261 261 261 260 260 259 259 259 258 258 257 257 257 256 255 255 254 254 255 256 256 257 258 258 259 259 259 259 258 256 255 254 253 253 254 254 254 255 254 254 254 254
268 267 267 266 266 265 265 264 264 264 264 264 264 263 263 263 262 262 262 262 262 261 261 261 261 261 261 261 261 261 261 261 261 261 261 261 261 261 261 262 262 261 261 261 261 261 261 261 261 260 260 259 258 258 257 257 257 257 257 256 256 256 256 256 257 258 259 259 259 260 260 260 260 259 257 256 255 254 254 254 254 255 255 255 255
269 269 269 269 268 268 267 266 266 265 265 265 264 263 263 263 263 262 262 262 261 261 261 261 261 261 261 261 261 261 260 260 260 260 260 260 260 260 260 261 261 261 261 261 261 261 261 261 261 261 261 260 260 259 258 258 257 257 257 258 258 258 258 258 258 258 259 259 259 259 260 260 261 261 261 260 258 257 256 255 255 255 255 255 255
269 270 270 270 270 269 269 268 268 267 266 265 265 264 263 262 262 262 261 261 260 260 260 260 260 261 261 261 261 261 261 260 260 260 260 260 260 259 259 259 260 260 261 261 261 261 261 262 261 261 261 261 261 260 260 260 259 259 259 258 259 259 259 259 259 259 259 259 259 259 260 260 260 261 262 262 262 261 260 259 258 257 257 256 256
269 269 269 269 269 269 269 268 268 267 266 265 265 264 263 262 261 260 259 259 259 259 259 259 260 260 260 260 260 260 260 260 260 259 259 259 259 259 258 258 258 259 259 260 260 260 261 261 261 262 261 261 261 261 261 261 261 261 261 261 261 261 260 260 259 259 259 259 259 260 260 261 261 262 262 263 263 264 264 264 263 262 261 260 259
269 268 268 267 267 267 267 267 267 267 266 265 264 264 263 262 261 260 259 259 259 259 260 260 260 260 259 259 259 259 259 259 259 259 259 259 259 259 259 258 258 258 258 258 259 259 260 261 261 261 261 261 261 261 262 262 263 263 263 263 262 262 261 261 260 260 260 260 260 260 261 261 262 263 263 264 265 266 266 267 267 266 266 265 264
269 268 268 268 267 267 267 267 266 266 266 265 264 263 263 262 261 260 260 260 260 260 260 260 260 260 260 259 259 259 259 259 259 259 259 259 259 259 259 259 258 258 258 258 258 259 259 260 260 260 261 261 261 261 261 262 263 263 264 264 264 263 263 262 262 261 261 261 261 261 261 262 263 263 264 265 266 267 268 268 268 268 268 268 267
270 269 269 269 268 268 267 267 267 266 266 265 265 263 262 261 260 260 260 260 260 260 260 260 260 259 259 259 259 258 258 258 258 258 258 259 259 259 259 259 259 258 258 258 258 258 259 259 259 259 259 260 260 261 261 262 262 263 264 264 265 265 265 264 263 262 261 261 261 262 262 263 264 265 265 266 267 267 268 268 269 269 269 268 267
269 268 268 268 268 267 267 267 267 266 266 265 264 263 262 261 261 261 261 261 261 260 260 259 259 258 258 258 258 258 258 258 258 258 258 259 259 259 259 259 259 259 258 258 258 258 258 258 258 258 258 259 260 260 261 261 262 262 263 264 265 266 266 266 265 264 263 262 262 262 263 263 264 265 265 266 266 267 268 268 268 268 267 266 265
267 267 266 266 266 266 266 266 266 266 266 265 264 263 262 261 261 261 261 261 260 260 260 259 258 258 258 258 258 259 259 259 258 258 258 258 258 258 258 258 258 259 259 259 258 258 257 257 257 257 257 258 259 260 260 261 261 262 262 263 264 265 266 267 267 267 267 266 265 265 265 265 264 265 265 265 266 267 267 267 267 267 266 265 265
266 266 266 266 266 266 265 265 265 265 265 265 265 264 262 261 261 261 261 260 259 259 258 257 258 259 259 260 260 260 259 259 258 258 258 258 258 258 258 258 257 257 257 257 256 256 256 256 256 256 257 257 258 259 260 260 260 260 261 262 263 264 266 267 268 269 269 269 269 269 268 268 268 268 268 268 268 268 267 267 267 267 267 267 266
266 266 266 266 265 265 264 264 264 264 264 264 264 263 262 261 261 261 261 260 259 259 258 259 260 260 260 260 260 259 258 258 257 257 257 257 258 257 257 256 256 255 254 254 255 255 255 255 256 256 256 257 258 258 258 259 259 260 261 262 263 264 265 266 267 268 269 270 270 270 270 270 270 270 269 269 268 267 267 267 268 268 268 267 266
268 267 267 265 264 263 262 261 261 262 263 263 262 262 262 262 262 261 260 260 260 261 261 262 262 261 261 261 260 259 257 257 256 256 255 254 254 254 253 254 254 255 255 255 256 256 256 257 257 257 257 257 258 258 259 260 261 262 263 264 265 265 266 267 267 268 268 269 270 270 270 271 271 270 269 268 267 266 266 266 267 267 266 266 265
266 266 266 265 264 262 261 260 259 259 260 261 261 262 263 263 262 261 260 261 261 261 261 261 261 261 261 260 259 259 259 258 258 257 256 254 253 253 253 254 255 255 256 256 256 256 256 256 256 256 257 257 258 260 261 262 263 264 265 266 267 267 268 268 269 270 270 271 271 272 273 273 273 271 268 266 265 265 265 265 265 265 264 264 265
Height
10609 10608 10608 10610 10610 10611 10612 10612 10612 10613 10615 10616 10618 10618 10618 10617 10617 10617 10617 10617 10618 10618 10619 10619 10621 10622 10623 10624 10625 10625 10626 10627 10628 10629 10630 10632 10633 10634 10635 10636 10638 10639 10640 10642 10643 10644 10646 10648 10650 10652 10654 10657 10659 10662 10665 10667 10670 10673 10675 10676 10680 10682 10683 10683 10684 10685 10687 10689 10690 10692 10694 10696 10697 10698 10700 10701 10703 10705 10706 10708 10710 10711 10711 10713 10715
10603 10603 10603 10604 10605 10605 10606 10608 10609 10609 10610 10611 10613 10613 10612 10612 10612 10611 10611 10612 10613 10614 10615 10615 10616 10618 10619 10620 10621 10621 10622 10622 10624 10625 10626 10627 10628 10630 10631 10632 10633 10634 10636 10638 10639 10640 10641 10643 10645 10647 10649 10651 10654 10657 10659 10661 10664 10667 10669 10672 10677 10679 10679 10679 10679 10680 10683 10685 10686 10688 10690 10692 10693 10694 10696 10698 10700 10701 10702 10704 10706 10708 10709 10711 10712
10599 10598 10599 10600 10600 10601 10602 10604 10605 10605 10605 10607 10608 10608 10607 10607 10607 10606 10607 10607 10608 10610 10611 10612 10613 10614 10615 10616 10616 10617 10618 10618 10619 10620 10622 10623 10624 10625 10627 10628 10629 10630 10632 10633 10634 10636 10637 10639 10640 10642 10644 10646 10649 10652 10654 10657 10659 10661 10664 10668 10671 10673 10674 10675 10675 10676 10678 10679 10681 10684 10686 10687 10689 10690 10692 10694 10696 10698 10699 10700 10703 10705 10707 10708 10710
10594 10594 10595 10596 10596 10597 10599 10599 10600 10601 10602 10603 10604 10604 10603 10603 10603 10603 10603 10604 10604 10605 10606 10608 10609 10610 10611 10611 10612 10613 10613 10614 10615 10616 10618 10619 10620 10621 10622 10624 10625 10626 10628 10629 10630 10632 10633 10635 10636 10638 10639 10641 10644 10647 10650 10652 10654 10656 10659 10662 10666 10668 10669 10670 10672 10673 10673 10675 10677 10679 10681 10683 10684 10686 10688 10690 10692 10694 10696 10697 10699 10700 10702 10704 10706
10590 10591 10592 10592 10593 10593 10594 10595 10595 10597 10598 10601 10601 10601 10600 10600 10599 10599 10600 10601 10601 10601 10602 10603 10604 10605 10606 10607 10608 10609 10610 10611 10612 10613 10614 10615 10616 10617 10618 10619 10621 10622 10623 10624 10626 10627 10629 10631 10632 10633 10635 10636 10639 10642 10644 10647 10649 10651 10654 10657 10660 10662 10663 10666 10668 10668 10669 10670 10673 10675 10676 10678 10680 10681 10684 10686 10688 10691 10692 10693 10695 10696 10698 10699 10701
10586 10587 10588 10588 10589 10589 10590 10590 10591 10592 10595 10598 10598 10597 10597 10597 10596 10596 10597 10598 10598 10598 10599 10599 10600 10601 10602 10603 10604 10605 10606 10607 10608 10609 10610 10611 10612 10613 10614 10615 10616 10618 10619 10620 10622 10623 10625 10626 10628 10629 10630 10632 10634 10636 10639 10641 10644 10646 10649 10651 10654 10656 10658 10661 10663 10664 10664 10666 10668 10670 10672 10674 10675 10677 10680 10682 10684 10686 10687 10689 10691 10692 10693 10695 10696
10581 10582 10583 10583 10584 10585 10585 10585 10587 10588 10590 10593 10595 10594 10593 10594 10593 10593 10594 10594 10595 10595 10595 10596 10597 10597 10598 10599 10600 10601 10602 10603 10604 10605 10606 10607 10608 10609 10610 10612 10613 10614 10615 10616 10618 10619 10621 10622 10623 10625 10626 10627 10629 10632 10634 10636 10639 10641 10644 10646 10649 10651 10653 10656 10658 10660 10660 10661 10663 10666 10667 10668 10669 10672 10675 10678 10680 10682 10682 10685 10687 10686 10687 10690 10691
10576 10577 10577 10578 10579 10580 10580 10581 10582 10584 10586 10588 10591 10590 10590 10590 10590 10590 10590 10591 10591 10592 10592 10593 10593 10594 10595 10596 10596 10597 10598 10599 10600 10601 10602 10603 10604 10605 10607 10608 10609 10610 10611 10613 10614 10615 10617 10618 10619 10620 10622 10623 10625 10627 10629 10631 10634 10636 10639 10641 10643 10646 10648 10651 10654 10655 10656 10657 10659 10661 10662 10664 10665 10667 10669 10672 10675 10677 10678 10681 10683 10681 10682 10685 10687
10570 10571 10572 10573 10574 10574 10576 10577 10577 10579 10580 10583 10586 10586 10585 10586 10587 10587 10587 10588 10588 10588 10589 10590 10590 10591 10591 10592 10593 10593 10594 10595 10596 10597 10598 10599 10600 10601 10602 10603 10605 10606 10607 10609 10610 10611 10613 10614 10615 10616 10618 10619 10621 10623 10625 10627 10629 10631 10634 10636 10638 10641 10643 10646 10648 10651 10652 10653 10655 10656 10658 10659 10661 10663 10665 10667 10669 10671 10674 10676 10678 10677 10678 10680 10681
10565 10565 10565 10567 10568 10569 10571 10571 10572 10574 10575 10578 10581 10581 10581 10582 10583 10583 10584 10584 10585 10585 10586 10586 10587 10587 10588 10588 10589 10589 10590 10591 10592 10594 10595 10595 10596 10597 10598 10600 10601 10602 10603 10605 10606 10607 10609 10610 10611 10612 10614 10615 10617 10619 10621 10623 10625 10626 10629 10631 10633 10635 10638 10640 10643 10646 10648 10649 10650 10652 10653 10655 10657 10659 10661 10662 10665 10667 10669 10671 10672 10672 10672 10674 10675
10559 10559 10559 10560 10562 10564 10565 10566 10567 10569 10570 10572 10575 10576 10576 10577 10578 10578 10580 10580 10581 10582 10582 10583 10583 10584 10584 10585 10585 10586 10586 10587 10588 10589 10591 10592 10592 10593 10594 10596 10597 10598 10599 10600 10602 10603 10604 10606 10607 10608 10609 10611 10613 10615 10616 10618 10620 10622 10624 10625 10628 10630 10632 10634 10637 10640 10642 10644 10646 10647 10649 10651 10653 10655 10656 10658 10660 10662 10664 10665 10667 10667 10668 10669 10670
10554 10553 10553 10554 10556 10558 10559 10560 10562 10563 10564 10566 10568 10570 10571 10572 10573 10574 10575 10576 10577 10577 10578 10579 10579 10580 10580 10581 10581 10582 10582 10583 10584 10585 10586 10588 10589 10590 10591 10592 10593 10594 10595 10596 10597 10599 10600 10601 10602 10603 10605 10606 10608 10610 10612 10613 10615 10617 10618 10620 10622 10624 10626 10628 10631 10634 10636 10639 10640 10642 10644 10646 10648 10650 10651 10653 10655 10656 10658 10660 10661 10663 10664 10665 10666
10549 10549 10548 10549 10549 10551 10552 10553 10555 10556 10558 10560 10562 10564 10566 10567 10568 10568 10569 10570 10571 10572 10573 10573 10574 10575 10575 10576 10576 10577 10578 10579 10580 10581 10582 10583 10584 10585 10586 10588 10589 10590 10591 10592 10593 10594 10595 10597 10598 10599 10600 10601 10603 10605 10606 10608 10610 10611 10613 10615 10616 10618 10620 10622 10624 10627 10629 10632 10635 10637 10638 10641 10643 10645 10646 10648 10649 10651 10653 10654 10655 10657 10659 10660 10661
10545 10544 10544 10543 10543 10544 10545 10546 10547 10549 10551 10553 10555 10557 10559 10561 10562 10563 10563 10564 10565 10566 10567 10568 10569 10569 10570 10570 10571 10572 10573 10574 10575 10576 10577 10578 10580 10581 10582 10583 10584 10585 10586 10587 10588 10589 10591 10592 10593 10594 10595 10596 10598 10599 10601 10602 10604 10605 10607 10609 10610 10612 10614 10616 10618 10621 10623 10625 10628 10630 10633 10635 10637 10639 10641 10643 10644 10646 10647 10648 10650 10651 10652 10654 10655
10540 10539 10539 10538 10538 10539 10539 10539 10540 10541 10543 10546 10547 10549 10552 10553 10555 10557 10558 10558 10558 10559 10560 10562 10562 10563 10564 10565 10566 10567 10568 10569 10570 10570 10571 10572 10574 10575 10577 10578 10579 10580 10581 10583 10584 10584 10585 10587 10588 10589 10590 10591 10592 10594 10595 10596 10598 10599 10601 10603 10605 10606 10608 10610 10612 10614 10617 10619 10621 10623 10626 10628 10631 10633 10635 10637 10639 10641 10642 10643 10644 10645 10646 10648 10649
10533 10533 10533 10533 10533 10533 10533 10533 10533 10534 10536 10538 10540 10542 10544 10545 10547 10549 10550 10551 10551 10552 10554 10555 10556 10557 10558 10559 10561 10562 10563 10563 10564 10565 10565 10566 10568 10569 10570 10572 10574 10575 10576 10577 10578 10579 10580 10581 10582 10583 10585 10586 10587 10588 10589 10590 10592 10593 10595 10597 10598 10600 10602 10604 10605 10607 10610 10612 10615 10616 10619 10622 10624 10626 10629 10631 10632 10634 10636 10638 10639 10639 10640 10641 10643
10524 10526 10526 10527 10527 10527 10527 10526 10527 10528 10529 10531 10533 10535 10536 10538 10539 10541 10543 10543 10544 10546 10547 10548 10549 10550 10552 10553 10555 10556 10556 10557 10558 10559 10560 10561 10561 10563 10564 10565 10567 10569 10570 10571 10572 10573 10574 10575 10576 10578 10579 10581 10582 10583 10583 10584 10586 10587 10589 10590 10592 10594 10596 10597 10599 10601 10603 10606 10608 10610 10611 10614 10617 10619 10622 10624 10626 10628 10629 10632 10633 10634 10634 10635 10636
10515 10517 10519 10520 10520 10520 10520 10519 10519 10520 10522 10525 10527 10528 10529 10530 10531 10533 10535 10535 10536 10538 10539 10540 10541 10543 10545 10547 10547 10548 10549 10550 10551 10552 10553 10554 10555 10556 10558 10559 10560 10562 10564 10565 10566 10567 10568 10569 10570 10572 10573 10574 10576 10576 10577 10578 10579 10581 10582 10583 10585 10587 10589 10590 10592 10594 10596 10599 10601 10603 10605 10606 10609 10612 10614 10617 10619 10621 10623 10624 10626 10628 10629 10629 10630
10506 10508 10510 10512 10512 10511 10512 10511 10511 10513 10515 10518 10520 10521 10522 10523 10523 10525 10527 10528 10528 10530 10532 10533 10534 10535 10538 10539 10539 10540 10541 10543 10544 10545 10546 10548 10550 10551 10552 10554 10555 10556 10557 10558 10559 10561 10562 10563 10564 10565 10566 10567 10569 10570 10571 10572 10573 10574 10576 10577 10578 10580 10581 10583 10585 10587 10590 10592 10594 10596 10598 10600 10601 10604 10607 10609 10612 10614 10616 10617 10619 10620 10622 10623 10624
10497 10497 10500 10503 10503 10501 10502 10503 10504 10506 10508 10509 10510 10512 10513 10514 10515 10516 10518 10521 10521 10522 10524 10525 10526 10527 10529 10530 10531 10532 10533 10536 10537 10538 10540 10542 10544 10545 10547 10548 10549 10550 10551 10552 10553 10554 10555 10556 10558 10559 10559 10560 10561 10562 10563 10564 10566 10567 10569 10571 10572 10574 10575 10577 10579 10581 10582 10584 10586 10588 10590 10592 10595 10597 10599 10601 10604 10606 10609 10610 10611 10613 10614 10615 10617
10488 10488 10490 10493 10494 10493 10493 10494 10495 10497 10499 10500 10501 10503 10505 10505 10505 10506 10508 10511 10514 10516 10517 10517 10518 10519 10520 10522 10523 10524 10526 10528 10529 10530 10533 10535 10537 10538 10540 10541 10541 10543 10544 10545 10546 10547 10548 10549 10550 10551 10552 10553 10554 10555 10556 10557 10558 10560 10562 10563 10565 10567 10569 10571 10572 10574 10576 10577 10579 10580 10582 10584 10587 10589 10591 10593 10596 10598 10600 10602 10604 10605 10606 10607 10608
10479 10480 10481 10483 10485 10486 10486 10486 10487 10488 10490 10491 10492 10494 10495 10496 10497 10497 10498 10501 10504 10507 10509 10509 10509 10510 10512 10514 10515 10516 10518 10519 10521 10522 10524 10526 10529 10530 10531 10532 10533 10535 10536 10537 10538 10539 10540 10541 10543 10544 10545 10546 10547 10548 10548 10549 10551 10552 10554 10555 10558 10560 10562 10564 10566 10568 10570 10571 10573 10574 10576 10577 10579 10581 10583 10585 10587 10589 10591 10593 10595 10596 10598 10598 10599
10471 10473 10474 10475 10476 10478 10479 10479 10480 10481 10482 10483 10484 10485 10486 10487 10488 10489 10490 10492 10494 10496 10499 10500 10500 10501 10504 10505 10507 10508 10509 10511 10512 10513 10514 10517 10520 10521 10523 10524 10525 10527 10528 10528 10530 10531 10532 10532 10534 10535 10537 10538 10539 10540 10540 10541 10543 10544 10546 10547 10550 10552 10554 10557 10559 10561 10563 10565 10567 10569 10570 10571 10573 10574 10576 10577 10579 10581 10583 10584 10586 10588 10589 10590 10591
10464 10465 10467 10468 10468 10470 10471 10472 10474 10475 10475 10476 10477 10477 10478 10478 10480 10481 10481 10483 10484 10486 10488 10490 10489 10491 10494 10496 10497 10499 10500 10501 10503 10503 10504 10506 10509 10511 10513 10514 10516 10517 10518 10519 10521 10522 10523 10524 10525 10527 10529 10530 10530 10531 10532 10533 10535 10536 10538 10539 10542 10544 10547 10549 10551 10553 10555 10557 10559 10561 10563 10564 10566 10567 10568 10569 10571 10572 10574 10575 10577 10579 10581 10582 10582
10458 10458 10459 10460 10461 10462 10463 10464 10466 10467 10468 10469 10469 10469 10470 10470 10471 10473 10473 10474 10475 10477 10478 10479 10479 10480 10484 10486 10487 10489 10490 10492 10493 10493 10493 10495 10498 10500 10502 10505 10507 10507 10509 10511 10512 10513 10514 10515 10517 10519 10520 10521 10521 10521 10522 10524 10526 10528 10530 10532 10534 10537 10539 10540 10542 10543 10545 10547 10549 10551 10553 10555 10557 10558 10560 10561 10563 10564 10565 10567 10568 10570 10572 10574 10575
10451 10452 10452 10452 10453 10453 10454 10456 10457 10458 10459 10460 10461 10461 10462 10463 10463 10464 10465 10465 10466 10468 10469 10469 10470 10472 10474 10475 10476 10478 10480 10482 10483 10482 10483 10485 10488 10491 10493 10495 10497 10498 10500 10501 10502 10504 10506 10507 10509 10511 10511 10511 10511 10511 10513 10515 10517 10519 10521 10524 10526 10528 10529 10530 10532 10534 10536 10538 10539 10542 10544 10546 10548 10549 10551 10553 10554 10556 10557 10558 10560 10562 10564 10566 10567
10445 10445 10445 10445 10445 10445 10445 10446 10447 10448 10450 10451 10452 10453 10453 10454 10455 10456 10456 10457 10457 10458 10459 10460 10461 10463 10464 10464 10466 10468 10470 10472 10474 10474 10474 10475 10478 10481 10483 10485 10486 10487 10490 10491 10492 10496 10498 10498 10500 10502 10502 10502 10502 10503 10505 10506 10508 10509 10511 10513 10514 10516 10518 10520 10522 10525 10526 10529 10531 10532 10534 10536 10538 10540 10541 10544 10546 10547 10549 10550 10552 10554 10556 10558 10559
10437 10437 10436 10437 10437 10437 10437 10438 10438 10439 10439 10441 10442 10443 10444 10444 10445 10446 10447 10448 10449 10449 10450 10450 10451 10454 10455 10455 10456 10458 10460 10462 10464 10465 10465 10465 10468 10472 10474 10475 10476 10477 10480 10481 10484 10487 10487 10488 10490 10492 10493 10493 10494 10495 10495 10494 10495 10497 10499 10501 10503 10505 10508 10511 10513 10515 10517 10519 10521 10523 10525 10526 10528 10529 10531 10534 10536 10538 10540 10541 10543 10545 10547 10549 10550
10429 10428 10428 10428 10428 10429 10430 10430 10431 10431 10431 10431 10431 10432 10434 10435 10435 10436 10436 10438 10439 10440 10441 10441 10442 10444 10445 10446 10447 10448 10450 10452 10454 10455 10456 10457 10459 10462 10464 10466 10467 10468 10469 10471 10473 10476 10477 10479 10482 10483 10482 10482 10483 10484 10483 10482 10484 10487 10490 10493 10495 10497 10499 10502 10504 10506 10507 10510 10512 10513 10515 10516 10517 10519 10521 10523 10525 10527 10529 10531 10533 10535 10538 10540 10541
10420 10420 10420 10419 10420 10420 10421 10421 10422 10423 10422 10422 10421 10421 10423 10424 10425 10426 10427 10427 10429 10430 10431 10432 10433 10434 10435 10436 10437 10438 10440 10442 10444 10445 10447 10448 10450 10452 10453 10456 10457 10458 10460 10462 10463 10464 10466 10469 10471 10470 10469 10470 10472 10473 10472 10473 10475 10479 10482 10484 10486 10488 10490 10492 10494 10495 10497 10499 10501 10503 10505 10506 10507 10508 10510 10513 10514 10516 10519 10521 10522 10524 10527 10529 10531
10410 10411 10411 10411 10411 10411 10411 10411 10412 10413 10412 10411 10411 10411 10412 10413 10414 10415 10417 10418 10419 10419 10420 10421 10422 10424 10425 10426 10427 10429 10430 10432 10434 10436 10437 10439 10440 10442 10443 10445 10447 10448 10450 10452 10453 10453 10454 10456 10458 10458 10458 10460 10462 10462 10463 10464 10466 10468 10470 10473 10475 10477 10480 10482 10484 10485 10487 10489 10490 10492 10494 10495 10496 10498 10500 10503 10504 10506 10509 10511 10512 10514 10516 10518 10520
10401 10401 10401 10401 10402 10402 10401 10401 10401 10402 10402 10401 10401 10401 10401 10402 10403 10404 10406 10408 10409 10409 10410 10410 10412 10413 10414 10415 10417 10419 10420 10422 10423 10425 10427 10428 10430 10431 10432 10434 10435 10437 10439 10442 10442 10442 10443 10444 10446 10447 10448 10451 10453 10453 10454 10455 10456 10457 10458 10460 10464 10467 10468 10471 10473 10474 10476 10477 10479 10480 10482 10484 10486 10487 10489 10491 10493 10496 10498 10500 10502 10504 10505 10507 10509
10391 10391 10391 10391 10391 10391 10390 10390 10390 10390 10391 10391 10391 10391 10391 10392 10392 10392 10394 10396 10397 10398 10399 10400 10401 10403 10404 10406 10407 10409 10410 10412 10413 10414 10416 10417 10419 10420 10421 10422 10424 10426 10428 10430 10431 10432 10433 10433 10434 10436 10437 10440 10442 10444 10446 10447 10447 10446 10447 10449 10453 10455 10457 10459 10461 10463 10464 10466 10467 10468 10470 10473 10475 10476 10477 10479 10482 10485 10487 10489 10491 10493 10494 10496 10497
10381 10381 10380 10380 10380 10380 10380 10380 10379 10379 10380 10380 10381 10381 10381 10382 10382 10382 10382 10383 10384 10386 10387 10388 10389 10392 10394 10396 10398 10399 10400 10401 10402 10403 10405 10406 10407 10408 10409 10410 10412 10414 10416 10418 10419 10421 10422 10422 10423 10425 10427 10430 10432 10434 10436 10437 10437 10436 10436 10438 10441 10443 10444 10446 10448 10450 10452 10454 10455 10456 10458 10461 10462 10464 10466 10467 10470 10473 10476 10478 10479 10481 10483 10484 10486
10370 10369 10369 10369 10369 10369 10369 10369 10369 10369 10369 10369 10370 10371 10371 10371 10371 10371 10371 10371 10372 10372 10373 10374 10376 10379 10382 10385 10387 10389 10390 10391 10392 10393 10394 10395 10396 10397 10398 10399 10401 10403 10405 10407 10408 10410 10411 10411 10412 10414 10416 10420 10422 10424 10426 10426 10425 10426 10426 10427 10429 10430 10431 10432 10434 10437 10439 10441 10442 10444 10446 10449 10451 10452 10454 10456 10458 10460 10463 10465 10467 10469 10471 10472 10474
10357 10358 10358 10358 10359 10358 10358 10358 10358 10358 10358 10358 10359 10360 10361 10361 10361 10361 10360 10360 10360 10360 10360 10361 10363 10366 10369 10372 10375 10377 10378 10380 10381 10383 10384 10384 10385 10386 10387 10388 10390 10392 10394 10395 10397 10399 10400 10400 10401 10403 10406 10409 10411 10414 10415 10415 10415 10415 10415 10416 10417 10417 10417 10419 10421 10422 10424 10426 10428 10430 10433 10435 10438 10440 10441 10444 10445 10447 10450 10453 10455 10457 10458 10459 10461
10345 10345 10345 10346 10347 10347 10347 10347 10347 10347 10347 10348 10349 10350 10351 10351 10350 10349 10348 10348 10348 10348 10347 10349 10351 10354 10356 10359 10361 10364 10366 10368 10369 10371 10373 10373 10374 10375 10376 10377 10379 10381 10382 10384 10385 10387 10388 10388 10389 10393 10396 10398 10400 10402 10403 10403 10404 10405 10404 10404 10404 10404 10405 10406 10408 10409 10411 10412 10414 10417 10418 10421 10424 10426 10428 10430 10432 10434 10437 10440 10442 10444 10445 10447 10447
10331 10332 10332 10334 10334 10335 10335 10335 10335 10335 10336 10337 10339 10339 10340 10340 10339 10338 10337 10336 10336 10335 10335 10337 10340 10342 10344 10347 10349 10352 10355 10357 10358 10359 10361 10362 10363 10364 10365 10366 10368 10370 10371 10372 10373 10375 10376 10376 10378 10382 10385 10387 10389 10390 10391 10391 10392 10392 10391 10391 10392 10392 10393 10395 10396 10397 10399 10400 10402 10403 10404 10406 10409 10411 10413 10416 10418 10421 10423 10425 10427 10429 10431 10432 10432
10318 10318 10319 10321 10321 10322 10323 10323 10324 10324 10324 10326 10327 10327 10328 10329 10328 10327 10326 10325 10324 10323 10324 10326 10329 10330 10332 10335 10338 10341 10343 10345 10346 10347 10349 10350 10352 10352 10353 10355 10356 10358 10359 10361 10362 10362 10364 10365 10368 10370 10373 10375 10377 10378 10379 10380 10380 10380 10379 10379 10380 10381 10382 10384 10385 10387 10388 10389 10390 10390 10391 10392 10394 10396 10398 10401 10404 10406 10408 10410 10411 10413 10416 10416 10415
10305 10306 10307 10308 10308 10309 10310 10311 10311 10312 10312 10313 10314 10315 10316 10317 10316 10316 10315 10313 10311 10311 10314 10316 10317 10319 10321 10324 10327 10329 10331 10333 10335 10336 10337 10339 10340 10341 10343 10344 10345 10346 10348 10349 10350 10351 10352 10354 10357 10358 10360 10363 10365 10366 10366 10367 10367 10368 10368 10368 10368 10369 10371 10374 10375 10376 10376 10376 10376 10377 10378 10379 10380 10381 10382 10385 10388 10391 10393 10395 10397 10398 10400 10399 10399
10294 10295 10295 10296 10296 10297 10297 10298 10298 10299 10299 10300 10301 10303 10305 10305 10305 10305 10302 10299 10299 10301 10304 10305 10307 10309 10311 10313 10315 10317 10319 10321 10323 10325 10326 10327 10328 10330 10332 10333 10334 10335 10336 10337 10338 10340 10341 10343 10345 10346 10349 10351 10352 10353 10353 10354 10355 10356 10356 10356 10356 10358 10360 10362 10362 10363 10362 10362 10362 10363 10363 10365 10367 10368 10368 10370 10372 10374 10376 10379 10382 10383 10384 10384 10386
10284 10284 10283 10284 10285 10285 10285 10285 10286 10287 10287 10288 10290 10292 10293 10293 10294 10292 10289 10288 10289 10292 10293 10295 10297 10300 10301 10302 10303 10305 10307 10309 10311 10313 10314 10315 10315 10317 10320 10322 10324 10325 10325 10326 10327 10329 10330 10332 10334 10336 10338 10340 10340 10340 10340 10341 10342 10343 10344 10344 10345 10346 10348 10348 10349 10350 10350 10350 10350 10350 10351 10352 10354 10355 10355 10356 10358 10359 10361 10363 10365 10366 10368 10370 10372
10272 10271 10271 10273 10274 10275 10275 10274 10275 10275 10276 10277 10279 10281 10282 10283 10282 10280 10277 10278 10281 10282 10284 10286 10288 10290 10291 10292 10293 10294 10296 10298 10300 10301 10303 10303 10304 10306 10309 10311 10313 10314 10314 10315 10317 10318 10320 10322 10324 10325 10326 10328 10328 10328 10328 10329 10330 10331 10332 10333 10333 10334 10335 10336 10338 10339 10338 10338 10339 10339 10340 10341 10342 10342 10343 10344 10345 10346 10347 10348 10349 10351 10353 10355 10357
10259 10259 10260 10262 10264 10265 10265 10265 10265 10264 10265 10267 10269 10271 10272 10273 10271 10268 10268 10270 10272 10274 10276 10278 10278 10279 10280 10281 10283 10285 10286 10288 10290 10291 10292 10293 10294 10296 10299 10300 10302 10303 10304 10305 10307 10308 10310 10313 10314 10314 10315 10316 10316 10316 10316 10317 10319 10320 10320 10321 10322 10323 10324 10325 10326 10327 10328 10328 10328 10328 10329 10330 10330 10331 10332 10333 10333 10334 10334 10335 10336 10337 10339 10341 10343
10248 10249 10249 10251 10253 10254 10255 10255 10254 10254 10256 10258 10259 10261 10262 10262 10260 10259 10260 10263 10264 10266 10267 10268 10269 10269 10270 10271 10273 10275 10276 10278 10280 10281 10282 10283 10285 10287 10289 10290 10292 10293 10294 10295 10297 10299 10301 10303 10304 10304 10304 10304 10305 10305 10306 10307 10309 10310 10310 10311 10312 10313 10314 10314 10315 10316 10317 10317 10318 10318 10319 10319 10320 10320 10321 10322 10323 10323 10322 10323 10324 10325 10327 10328 10329
10237 10238 10239 10240 10242 10244 10245 10245 10245 10245 10246 10248 10250 10251 10253 10252 10251 10251 10253 10255 10256 10258 10259 10259 10259 10259 10260 10261 10263 10265 10267 10269 10271 10272 10273 10274 10276 10278 10280 10281 10283 10284 10285 10287 10289 10290 10292 10293 10294 10294 10294 10295 10295 10296 10298 10298 10299 10300 10301 10302 10302 10302 10303 10303 10304 10305 10306 10307 10308 10308 10309 10310 10310 10311 10311 10311 10312 10312 10312 10313 10313 10314 10314 10315 10316
10227 10227 10228 10230 10233 10235 10235 10236 10236 10236 10237 10238 10240 10242 10244 10243 10243 10245 10247 10247 10248 10249 10249 10248 10248 10249 10251 10253 10255 10258 10260 10261 10262 10263 10264 10266 10268 10270 10271 10273 10274 10276 10277 10278 10280 10281 10282 10283 10284 10284 10285 10286 10287 10288 10289 10290 10291 10292 10292 10292 10292 10292 10292 10292 10293 10294 10295 10297 10298 10298 10299 10300 10301 10301 10301 10301 10302 10302 10302 10302 10302 10302 10303 10304 10305
10217 10218 10219 10222 10224 10226 10226 10227 10227 10227 10228 10229 10232 10233 10234 10235 10236 10238 10239 10239 10240 10241 10240 10239 10240 10242 10245 10247 10249 10251 10252 10252 10253 10254 10256 10258 10260 10261 10263 10265 10266 10267 10267 10268 10270 10271 10272 10274 10275 10276 10277 10278 10279 10280 10280 10281 10282 10282 10283 10283 10283 10283 10283 10283 10284 10284 10285 10286 10287 10288 10289 10289 10290 10291 10292 10292 10292 10292 10292 10292 10292 10292 10293 10294 10295
10209 10210 10212 10214 10215 10217 10218 10219 10219 10219 10220 10222 10223 10224 10225 10228 10230 10231 10230 10231 10232 10231 10231 10232 10235 10237 10238 10240 10241 10242 10243 10243 10245 10246 10248 10251 10252 10253 10254 10255 10256 10257 10258 10259 10261 10262 10263 10265 10267 10268 10269 10270 10271 10271 10271 10272 10273 10273 10274 10275 10275 10275 10275 10275 10275 10275 10276 10277 10277 10278 10279 10280 10281 10282 10283 10283 10283 10283 10283 10283 10283 10284 10285 10285 10285
10200 10201 10203 10205 10207 10208 10210 10210 10210 10210 10212 10213 10214 10216 10218 10222 10223 10222 10222 10223 10224 10223 10224 10227 10228 10230 10231 10232 10232 10233 10234 10236 10237 10238 10241 10243 10244 10244 10245 10246 10247 10248 10250 10252 10254 10255 10256 10258 10259 10260 10261 10261 10262 10262 10263 10264 10265 10266 10266 10266 10267 10267 10267 10267 10267 10267 10267 10268 10269 10269 10271 10272 10273 10274 10274 10274 10274 10274 10274 10274 10275 10276 10276 10276 10276
10191 10193 10194 10195 10197 10199 10200 10201 10201 10202 10204 10205 10206 10208 10213 10215 10214 10213 10214 10216 10217 10217 10218 10220 10221 10223 10224 10224 10223 10224 10226 10228 10228 10230 10232 10234 10235 10236 10238 10239 10240 10242 10244 10246 10248 10249 10249 10251 10251 10252 10253 10253 10254 10255 10256 10257 10258 10258 10258 10258 10258 10258 10258 10258 10258 10258 10259 10260 10261 10261 10263 10264 10265 10265 10265 10264 10265 10265 10266 10266 10267 10267 10268 10268 10268